| time (UTC) | temp F | wind direction | speed knots | gust knots | rain 1hr in | rain 24hr in | rain mn in | humidity % | barometer mb |
| 20260504175339 | 57 | 275 | 3.5 | 11.3 | 0.00 | 0.00 | 0.00 | 52 | 1001.4 |
| 20260504174838 | 58 | 291 | 13.0 | 19.1 | 0.00 | 0.00 | 0.00 | 50 | 1001.2 |
| 20260504174335 | 58 | 280 | 10.4 | 14.8 | 0.00 | 0.00 | 0.00 | 55 | 1001.2 |
| 20260504173832 | 57 | 249 | 13.9 | 15.6 | 0.00 | 0.00 | 0.00 | 52 | 1001.2 |
| 20260504173328 | 56 | 220 | 5.2 | 8.7 | 0.00 | 0.00 | 0.00 | 53 | 1001.2 |
| 20260504172826 | 56 | 216 | 6.1 | 8.7 | 0.00 | 0.00 | 0.00 | 54 | 1001.3 |
| 20260504172322 | 55 | 276 | 1.7 | 9.6 | 0.00 | 0.00 | 0.00 | 55 | 1001.2 |
| 20260504171818 | 55 | 232 | 7.0 | 14.8 | 0.00 | 0.00 | 0.00 | 55 | 1001.3 |
| 20260504171315 | 55 | 326 | 6.1 | 9.6 | 0.00 | 0.00 | 0.00 | 57 | 1001.4 |
| 20260504170812 | 55 | 281 | 5.2 | 10.4 | 0.00 | 0.00 | 0.00 | 54 | 1001.3 |
| 20260504170309 | 56 | 256 | 4.3 | 11.3 | 0.00 | 0.00 | 0.00 | 54 | 1001.2 |
| 20260504160227 | 52 | 258 | 9.6 | 13.0 | 0.00 | 0.00 | 0.00 | 60 | 1001.4 |
| 20260504150653 | 53 | 307 | 8.7 | 20.0 | 0.00 | 0.00 | 0.00 | 56 | 1001.3 |
| 20260504150150 | 53 | 319 | 7.0 | 19.1 | 0.00 | 0.00 | 0.00 | 56 | 1001.3 |
| 20260504141119 | 55 | 274 | 7.8 | 14.8 | 0.00 | 0.00 | 0.00 | 53 | 1000.4 |
| 20260504140615 | 55 | 241 | 5.2 | 15.6 | 0.00 | 0.00 | 0.00 | 53 | 1000.4 |
| 20260504140111 | 55 | 278 | 8.7 | 12.2 | 0.00 | 0.00 | 0.00 | 53 | 1000.5 |
| 20260504130539 | 52 | 180 | 3.5 | 7.8 | 0.00 | 0.00 | 0.00 | 60 | 1000.9 |
| 20260504110427 | 39 | 54 | 3.5 | 5.2 | 0.00 | 0.00 | 0.00 | 93 | 1002.2 |
| 20260504100343 | 37 | 71 | 3.5 | 5.2 | 0.00 | 0.00 | 0.00 | 91 | 1002.2 |
| 20260504081737 | 35 | 82 | 2.6 | 3.5 | 0.00 | 0.00 | 0.00 | 94 | 1002.5 |
| 20260504081233 | 35 | 101 | 0.9 | 4.3 | 0.00 | 0.00 | 0.00 | 93 | 1002.4 |
| 20260504080730 | 35 | 104 | 2.6 | 2.6 | 0.00 | 0.00 | 0.00 | 94 | 1002.4 |
| 20260504080226 | 35 | 65 | 1.7 | 2.6 | 0.00 | 0.00 | 0.00 | 93 | 1002.3 |
| 20260504070154 | 37 | 148 | 1.7 | 2.6 | 0.00 | 0.00 | 0.00 | 86 | 1002.7 |
| 20260504060119 | 30 | 75 | 0.9 | 1.7 | 0.00 | 0.00 | 0.00 | 92 | 1002.4 |
| 20260504050548 | 29 | 65 | 0.9 | 1.7 | 0.00 | 0.00 | 0.00 | 92 | 1002.5 |
| 20260504045541 | 29 | 44 | 0.9 | 1.7 | 0.00 | 0.00 | 0.00 | 93 | 1002.7 |
| 20260504045037 | 28 | 74 | 0.9 | 2.6 | 0.00 | 0.00 | 0.00 | 93 | 1002.8 |
| 20260504044534 | 28 | 110 | 0.9 | 1.7 | 0.00 | 0.00 | 0.00 | 93 | 1002.7 |
| 20260504044031 | 28 | 354 | 0.0 | 0.9 | 0.00 | 0.00 | 0.00 | 93 | 1002.7 |
| 20260504043528 | 28 | 48 | 0.0 | 0.9 | 0.00 | 0.00 | 0.00 | 93 | 1002.7 |
| 20260504043026 | 28 | 57 | 0.0 | 0.9 | 0.00 | 0.00 | 0.00 | 93 | 1002.8 |
| 20260504042522 | 27 | 53 | 0.9 | 1.7 | 0.00 | 0.00 | 0.00 | 93 | 1002.8 |
| 20260504042020 | 27 | 22 | 0.0 | 0.9 | 0.00 | 0.00 | 0.00 | 93 | 1003.1 |
| 20260504041515 | 28 | 41 | 1.7 | 1.7 | 0.00 | 0.00 | 0.00 | 93 | 1002.8 |
| 20260504041011 | 28 | 74 | 1.7 | 1.7 | 0.00 | 0.00 | 0.00 | 92 | 1003.0 |
| 20260504040509 | 28 | 26 | 0.9 | 0.9 | 0.00 | 0.00 | 0.00 | 92 | 1003.0 |
| 20260504040005 | 28 | 93 | 0.0 | 0.9 | 0.00 | 0.00 | 0.00 | 92 | 1002.8 |
| 20260504035503 | 28 | 352 | 0.0 | 1.7 | 0.00 | 0.00 | 0.00 | 92 | 1002.8 |
| 20260504034959 | 28 | 16 | 0.0 | 1.7 | 0.00 | 0.00 | 0.00 | 92 | 1002.8 |
| 20260504034457 | 28 | 76 | 0.0 | 1.7 | 0.00 | 0.00 | 0.00 | 92 | 1002.8 |
| 20260504033953 | 28 | 34 | 1.7 | 1.7 | 0.00 | 0.00 | 0.00 | 92 | 1002.9 |
| 20260504033451 | 28 | 52 | 0.9 | 1.7 | 0.00 | 0.00 | 0.00 | 92 | 1003.0 |
| 20260504032948 | 28 | 353 | 0.0 | 0.9 | 0.00 | 0.00 | 0.00 | 92 | 1002.9 |
| 20260504032445 | 28 | 16 | 0.9 | 1.7 | 0.00 | 0.00 | 0.00 | 91 | 1002.6 |
| 20260504031942 | 28 | 55 | 0.0 | 1.7 | 0.00 | 0.00 | 0.00 | 91 | 1002.9 |
| 20260504031439 | 28 | 95 | 0.9 | 1.7 | 0.00 | 0.00 | 0.00 | 91 | 1002.9 |
| 20260504030935 | 28 | 60 | 0.0 | 1.7 | 0.00 | 0.00 | 0.00 | 91 | 1002.8 |
| 20260504030432 | 28 | 315 | 0.0 | 1.7 | 0.00 | 0.00 | 0.00 | 91 | 1003.0 |
| 20260504025928 | 28 | 51 | 0.9 | 0.9 | 0.00 | 0.00 | 0.00 | 90 | 1002.9 |
| 20260504025425 | 29 | 333 | 0.0 | 1.7 | 0.00 | 0.00 | 0.00 | 90 | 1003.0 |
| 20260504024922 | 29 | 20 | 0.9 | 1.7 | 0.00 | 0.00 | 0.00 | 90 | 1003.0 |
| 20260504024419 | 29 | 70 | 1.7 | 1.7 | 0.00 | 0.00 | 0.00 | 90 | 1002.8 |
| 20260504023916 | 29 | 308 | 0.9 | 1.7 | 0.00 | 0.00 | 0.00 | 90 | 1002.9 |
| 20260504023413 | 29 | 336 | 0.0 | 0.9 | 0.00 | 0.00 | 0.00 | 90 | 1003.0 |
| 20260504022908 | 29 | 305 | 0.9 | 0.9 | 0.00 | 0.00 | 0.00 | 89 | 1002.9 |
| 20260504022405 | 29 | 57 | 1.7 | 1.7 | 0.00 | 0.00 | 0.00 | 89 | 1003.0 |
| 20260504021902 | 29 | 30 | 0.9 | 1.7 | 0.00 | 0.00 | 0.00 | 88 | 1002.8 |
| 20260504021359 | 30 | 22 | 0.0 | 0.0 | 0.00 | 0.00 | 0.00 | 88 | 1003.0 |
| 20260504020856 | 30 | 329 | 0.0 | 0.9 | 0.00 | 0.00 | 0.00 | 87 | 1003.1 |
| 20260504020353 | 31 | 48 | 0.0 | 0.9 | 0.00 | 0.00 | 0.00 | 87 | 1003.1 |
| 20260504015849 | 31 | 35 | 0.9 | 1.7 | 0.00 | 0.00 | 0.00 | 87 | 1003.1 |
| 20260504015345 | 31 | 329 | 1.7 | 1.7 | 0.00 | 0.00 | 0.00 | 86 | 1003.2 |
| 20260504014841 | 31 | 24 | 0.9 | 1.7 | 0.00 | 0.00 | 0.00 | 87 | 1003.0 |
| 20260504014337 | 31 | 291 | 0.0 | 2.6 | 0.00 | 0.00 | 0.00 | 86 | 1003.1 |
| 20260504013835 | 31 | 272 | 1.7 | 1.7 | 0.00 | 0.00 | 0.00 | 85 | 1003.0 |
| 20260504013333 | 32 | 331 | 0.9 | 1.7 | 0.00 | 0.00 | 0.00 | 84 | 1002.9 |
| 20260504012829 | 32 | 0 | 0.0 | 1.7 | 0.00 | 0.00 | 0.00 | 83 | 1003.0 |
| 20260504012327 | 33 | 299 | 0.0 | 1.7 | 0.00 | 0.00 | 0.00 | 82 | 1002.8 |
| 20260504011824 | 33 | 25 | 0.0 | 1.7 | 0.00 | 0.00 | 0.00 | 81 | 1002.7 |
| 20260504011321 | 33 | 353 | 0.0 | 1.7 | 0.00 | 0.00 | 0.00 | 81 | 1002.7 |
| 20260504010817 | 34 | 40 | 1.7 | 1.7 | 0.00 | 0.00 | 0.00 | 80 | 1002.7 |
| 20260504010312 | 34 | 320 | 0.9 | 1.7 | 0.00 | 0.00 | 0.00 | 81 | 1002.7 |
| 20260504005809 | 34 | 312 | 0.0 | 0.9 | 0.00 | 0.00 | 0.00 | 81 | 1002.7 |
| 20260504005306 | 34 | 26 | 0.0 | 1.7 | 0.00 | 0.00 | 0.00 | 80 | 1002.6 |
| 20260504004804 | 34 | 338 | 0.0 | 1.7 | 0.00 | 0.00 | 0.00 | 80 | 1002.7 |
| 20260504004301 | 35 | 330 | 0.0 | 0.9 | 0.00 | 0.00 | 0.00 | 79 | 1002.5 |
| 20260504003757 | 35 | 39 | 1.7 | 1.7 | 0.00 | 0.00 | 0.00 | 78 | 1002.4 |
| 20260504003254 | 35 | 345 | 0.0 | 0.9 | 0.00 | 0.00 | 0.00 | 78 | 1002.4 |
| 20260504002751 | 36 | 38 | 0.0 | 1.7 | 0.00 | 0.00 | 0.00 | 76 | 1002.5 |
| 20260504002248 | 37 | 287 | 0.0 | 0.9 | 0.00 | 0.00 | 0.00 | 75 | 1002.5 |
| 20260504001746 | 37 | 154 | 0.0 | 1.7 | 0.00 | 0.00 | 0.00 | 70 | 1002.4 |
| 20260504001243 | 38 | 339 | 0.0 | 0.9 | 0.00 | 0.00 | 0.00 | 72 | 1002.5 |
| 20260504000739 | 39 | 157 | 0.0 | 1.7 | 0.00 | 0.00 | 0.00 | 69 | 1002.3 |
| 20260504000236 | 39 | 182 | 0.9 | 1.7 | 0.00 | 0.00 | 0.00 | 66 | 1002.4 |
| 20260503235735 | 39 | 335 | 0.0 | 0.9 | 0.00 | 0.00 | 0.00 | 70 | 1002.3 |
| 20260503235231 | 40 | 337 | 0.0 | 0.0 | 0.00 | 0.00 | 0.00 | 67 | 1002.6 |
| 20260503234729 | 41 | 315 | 0.0 | 1.7 | 0.00 | 0.00 | 0.00 | 65 | 1002.1 |
| 20260503234227 | 42 | 269 | 0.0 | 1.7 | 0.00 | 0.00 | 0.00 | 59 | 1002.2 |
| 20260503233724 | 43 | 277 | 2.6 | 3.5 | 0.00 | 0.00 | 0.00 | 52 | 1002.0 |
| 20260503233219 | 44 | 156 | 0.9 | 3.5 | 0.00 | 0.00 | 0.00 | 52 | 1002.3 |
| 20260503232716 | 44 | 278 | 2.6 | 4.3 | 0.00 | 0.00 | 0.00 | 50 | 1002.1 |
| 20260503232213 | 45 | 271 | 4.3 | 5.2 | 0.00 | 0.00 | 0.00 | 47 | 1002.4 |
| 20260503231712 | 45 | 279 | 7.0 | 7.0 | 0.00 | 0.00 | 0.00 | 47 | 1002.2 |
| 20260503231208 | 46 | 279 | 3.5 | 4.3 | 0.00 | 0.00 | 0.00 | 47 | 1002.2 |
| 20260503230704 | 46 | 238 | 1.7 | 3.5 | 0.00 | 0.00 | 0.00 | 45 | 1002.0 |
| 20260503230202 | 46 | 261 | 5.2 | 9.6 | 0.00 | 0.00 | 0.00 | 45 | 1002.0 |
| 20260503225659 | 47 | 285 | 5.2 | 8.7 | 0.00 | 0.00 | 0.00 | 46 | 1002.0 |
| 20260503225154 | 46 | 268 | 3.5 | 6.1 | 0.00 | 0.00 | 0.00 | 46 | 1002.2 |
| 20260503224652 | 46 | 231 | 3.5 | 5.2 | 0.00 | 0.00 | 0.00 | 47 | 1002.3 |
| 20260503224149 | 46 | 249 | 3.5 | 3.5 | 0.00 | 0.00 | 0.00 | 47 | 1002.1 |
| 20260503223647 | 46 | 300 | 1.7 | 10.4 | 0.00 | 0.00 | 0.00 | 45 | 1002.0 |
| 20260503223143 | 48 | 264 | 5.2 | 8.7 | 0.00 | 0.00 | 0.00 | 44 | 1002.1 |
| 20260503222640 | 47 | 272 | 3.5 | 6.1 | 0.00 | 0.00 | 0.00 | 46 | 1001.9 |
| 20260503222138 | 46 | 281 | 7.8 | 9.6 | 0.00 | 0.00 | 0.00 | 47 | 1001.9 |
| 20260503221636 | 46 | 298 | 4.3 | 12.2 | 0.00 | 0.00 | 0.00 | 47 | 1002.0 |
| 20260503221133 | 46 | 269 | 3.5 | 3.5 | 0.00 | 0.00 | 0.00 | 48 | 1001.9 |
| 20260503220630 | 46 | 269 | 5.2 | 6.1 | 0.00 | 0.00 | 0.00 | 48 | 1001.9 |
| 20260503220126 | 46 | 299 | 3.5 | 3.5 | 0.00 | 0.00 | 0.00 | 49 | 1001.9 |
| 20260503215623 | 46 | 54 | 1.7 | 8.7 | 0.00 | 0.00 | 0.00 | 49 | 1001.9 |
| 20260503215120 | 45 | 357 | 7.0 | 13.9 | 0.00 | 0.00 | 0.00 | 49 | 1001.9 |
| 20260503214619 | 45 | 318 | 6.1 | 10.4 | 0.00 | 0.00 | 0.00 | 49 | 1001.9 |
| 20260503214114 | 46 | 324 | 5.2 | 11.3 | 0.00 | 0.00 | 0.00 | 48 | 1002.0 |
| 20260503213609 | 46 | 264 | 2.6 | 4.3 | 0.00 | 0.00 | 0.00 | 48 | 1001.9 |
| 20260503213104 | 46 | 275 | 4.3 | 7.0 | 0.00 | 0.00 | 0.00 | 49 | 1002.2 |
| 20260503212602 | 46 | 335 | 5.2 | 9.6 | 0.00 | 0.00 | 0.00 | 47 | 1002.2 |
| 20260503212059 | 46 | 5 | 5.2 | 13.0 | 0.00 | 0.00 | 0.00 | 49 | 1002.0 |
| 20260503211556 | 45 | 278 | 1.7 | 7.0 | 0.00 | 0.00 | 0.00 | 50 | 1002.2 |
| 20260503211051 | 45 | 262 | 4.3 | 9.6 | 0.00 | 0.00 | 0.00 | 50 | 1002.2 |
| 20260503210549 | 45 | 303 | 9.6 | 12.2 | 0.00 | 0.00 | 0.00 | 50 | 1002.1 |
| 20260503210044 | 45 | 279 | 5.2 | 7.8 | 0.00 | 0.00 | 0.00 | 52 | 1001.9 |
| 20260503205541 | 44 | 276 | 4.3 | 15.6 | 0.00 | 0.00 | 0.00 | 51 | 1002.1 |
| 20260503205037 | 45 | 281 | 11.3 | 14.8 | 0.00 | 0.00 | 0.00 | 50 | 1002.1 |
| 20260503204534 | 45 | 252 | 4.3 | 11.3 | 0.00 | 0.00 | 0.00 | 51 | 1002.0 |
| 20260503204031 | 45 | 278 | 7.8 | 15.6 | 0.00 | 0.00 | 0.00 | 49 | 1001.8 |
| 20260503203528 | 46 | 222 | 12.2 | 19.1 | 0.00 | 0.00 | 0.00 | 48 | 1001.9 |
| 20260503203025 | 46 | 271 | 7.0 | 9.6 | 0.00 | 0.00 | 0.00 | 50 | 1001.8 |
| 20260503202523 | 45 | 282 | 3.5 | 13.0 | 0.00 | 0.00 | 0.00 | 50 | 1001.8 |
| 20260503202021 | 45 | 256 | 8.7 | 13.9 | 0.00 | 0.00 | 0.00 | 49 | 1002.0 |
| 20260503201519 | 45 | 266 | 8.7 | 10.4 | 0.00 | 0.00 | 0.00 | 49 | 1001.7 |
| 20260503201016 | 45 | 279 | 8.7 | 10.4 | 0.00 | 0.00 | 0.00 | 48 | 1001.6 |
| 20260503200512 | 45 | 274 | 6.1 | 13.0 | 0.00 | 0.00 | 0.00 | 48 | 1001.9 |
| 20260503200009 | 45 | 264 | 7.0 | 18.2 | 0.00 | 0.00 | 0.00 | 48 | 1002.1 |
| 20260503195506 | 46 | 241 | 7.8 | 16.5 | 0.00 | 0.00 | 0.00 | 46 | 1001.8 |
| 20260503195002 | 47 | 243 | 3.5 | 4.3 | 0.00 | 0.00 | 0.00 | 47 | 1001.7 |
| 20260503194500 | 47 | 281 | 5.2 | 12.2 | 0.00 | 0.00 | 0.00 | 46 | 1001.8 |
| 20260503193955 | 46 | 298 | 7.0 | 16.5 | 0.00 | 0.00 | 0.00 | 45 | 1001.8 |
| 20260503193451 | 46 | 265 | 7.8 | 11.3 | 0.00 | 0.00 | 0.00 | 47 | 1002.0 |
| 20260503192946 | 46 | 279 | 4.3 | 7.0 | 0.00 | 0.00 | 0.00 | 46 | 1001.8 |
| 20260503192443 | 46 | 319 | 11.3 | 16.5 | 0.00 | 0.00 | 0.00 | 44 | 1002.0 |
| 20260503191938 | 46 | 304 | 7.8 | 15.6 | 0.00 | 0.00 | 0.00 | 44 | 1002.0 |
| 20260503191436 | 46 | 330 | 9.6 | 14.8 | 0.00 | 0.00 | 0.00 | 45 | 1002.1 |
| 20260503190932 | 45 | 274 | 2.6 | 11.3 | 0.00 | 0.00 | 0.00 | 49 | 1002.0 |
| 20260503190430 | 45 | 335 | 5.2 | 9.6 | 0.00 | 0.00 | 0.00 | 47 | 1002.1 |
| 20260503185927 | 46 | 319 | 6.1 | 14.8 | 0.00 | 0.00 | 0.00 | 47 | 1002.2 |
| 20260503185423 | 46 | 324 | 0.9 | 10.4 | 0.00 | 0.00 | 0.00 | 47 | 1002.0 |
| 20260503184922 | 46 | 273 | 6.1 | 13.9 | 0.00 | 0.00 | 0.00 | 48 | 1002.2 |
| 20260503184419 | 46 | 292 | 9.6 | 11.3 | 0.00 | 0.00 | 0.00 | 46 | 1001.9 |
| 20260503183916 | 46 | 308 | 6.1 | 10.4 | 0.00 | 0.00 | 0.00 | 48 | 1002.0 |
| 20260503183412 | 45 | 275 | 8.7 | 15.6 | 0.00 | 0.00 | 0.00 | 48 | 1002.0 |
| 20260503182909 | 45 | 308 | 11.3 | 16.5 | 0.00 | 0.00 | 0.00 | 46 | 1001.9 |
| 20260503182409 | 46 | 251 | 3.5 | 15.6 | 0.00 | 0.00 | 0.00 | 47 | 1001.9 |
| 20260503181905 | 46 | 314 | 13.0 | 19.1 | 0.00 | 0.00 | 0.00 | 41 | 1002.1 |
| 20260503181357 | 46 | 248 | 4.3 | 15.6 | 0.00 | 0.00 | 0.00 | 39 | 1001.8 |
| 20260503180853 | 47 | 325 | 5.2 | 13.9 | 0.00 | 0.00 | 0.00 | 41 | 1002.0 |
| 20260503180351 | 47 | 351 | 2.6 | 13.0 | 0.00 | 0.00 | 0.00 | 43 | 1002.0 |
| 20260503175847 | 47 | 254 | 5.2 | 13.0 | 0.00 | 0.00 | 0.00 | 42 | 1001.9 |